EW4939 Weather Reports


Display with metric or nautical units.
time (UTC)temp
F
wind
direction
speed
MPH
gust
MPH
rain 1hr
in
rain 24hr
in
rain mn
in
humidity
%
barometer
mb
20260831085146 73 155 0.0 0.0 0.00 0.00 0.00 89 1018.2
20260831084641 73 155 0.0 0.0 0.00 0.00 0.00 89 1018.0
20260831084138 73 155 0.0 1.0 0.00 0.00 0.00 89 1017.9
20260831083633 73 155 0.0 0.0 0.00 0.00 0.00 88 1018.1
20260831083128 73 155 0.0 0.0 0.00 0.00 0.00 88 1017.6
20260831082627 74 155 0.0 0.0 0.00 0.00 0.00 88 1017.6
20260831082122 74 155 1.0 1.0 0.00 0.00 0.00 87 1017.7
20260831081618 74 155 0.0 1.0 0.00 0.00 0.00 87 1017.4
20260831081113 73 155 1.0 1.0 0.00 0.00 0.00 88 1017.4
20260831080609 73 155 0.0 0.0 0.00 0.00 0.00 91 1017.3
20260831080104 73 155 0.0 0.0 0.00 0.00 0.00 91 1017.4
20260831075559 72 155 0.0 1.0 0.00 0.00 0.00 91 1017.3
20260831075055 72 155 0.0 1.0 0.00 0.00 0.00 91 1017.4
20260831074554 73 155 0.0 0.0 0.00 0.00 0.00 91 1017.7
20260831074054 73 155 0.0 0.0 0.00 0.00 0.00 90 1017.5
20260831073549 73 155 0.0 0.0 0.00 0.00 0.00 89 1017.5
20260831073048 73 155 0.0 0.0 0.00 0.00 0.00 89 1017.6
20260831072544 73 155 0.0 0.0 0.00 0.00 0.00 88 1017.5
20260831072041 74 154 0.0 1.0 0.00 0.00 0.00 87 1017.8
20260831071539 75 156 0.0 0.0 0.00 0.00 0.00 85 1017.7
20260831071035 75 156 0.0 2.0 0.00 0.00 0.00 82 1017.8
20260831070533 75 177 1.0 1.0 0.00 0.00 0.00 84 1017.9
20260831070029 74 172 1.0 1.0 0.00 0.00 0.00 87 1017.9
20260831065526 74 172 0.0 1.0 0.00 0.00 0.00 87 1017.7
20260831065021 75 172 1.0 1.0 0.00 0.00 0.00 87 1017.7
20260831064516 74 172 1.0 2.0 0.00 0.00 0.00 85 1018.0
20260831064012 73 172 0.0 1.0 0.00 0.00 0.00 87 1018.0
20260831063508 72 172 1.0 1.0 0.00 0.00 0.00 91 1018.2
20260831063007 72 172 0.0 1.0 0.00 0.00 0.00 93 1018.3
20260831062502 72 171 1.0 2.0 0.00 0.00 0.00 93 1018.3
20260831062001 72 171 1.0 1.0 0.00 0.00 0.00 93 1018.6
20260831061459 71 171 0.0 1.0 0.00 0.00 0.00 93 1018.7
20260831060956 71 171 0.0 0.0 0.00 0.00 0.00 93 1018.8
20260831060451 71 171 0.0 0.0 0.00 0.00 0.00 93 1018.6
20260831055950 71 171 0.0 0.0 0.00 0.00 0.00 93 1018.8
20260831055445 71 171 0.0 0.0 0.00 0.00 0.00 92 1018.6
20260831054941 71 171 0.0 0.0 0.00 0.00 0.00 92 1018.6
20260831054441 71 171 0.0 0.0 0.00 0.00 0.00 92 1018.5
20260831053941 71 171 0.0 1.0 0.00 0.00 0.00 92 1018.4
20260831053439 71 171 0.0 1.0 0.00 0.00 0.00 91 1018.6
20260831052934 71 171 0.0 0.0 0.00 0.00 0.00 91 1018.7
20260831052433 71 171 0.0 0.0 0.00 0.00 0.00 91 1018.6
20260831051931 71 171 0.0 0.0 0.00 0.00 0.00 91 1018.7
20260831051430 71 171 0.0 0.0 0.00 0.00 0.00 91 1018.7
20260831050925 71 171 0.0 0.0 0.00 0.00 0.00 91 1018.6
20260831050425 71 171 0.0 1.0 0.00 0.00 0.00 91 1018.6
20260831045923 72 171 0.0 0.0 0.00 0.00 0.00 90 1018.5
20260831045423 72 171 0.0 0.0 0.00 0.00 0.00 90 1018.6
20260831044918 72 171 0.0 0.0 0.00 0.00 0.00 89 1018.3
20260831044413 72 171 0.0 0.0 0.00 0.00 0.00 90 1018.5
20260831043909 72 171 0.0 0.0 0.00 0.00 0.00 89 1018.5
20260831043409 72 171 0.0 0.0 0.00 0.00 0.00 89 1018.3
20260831042904 72 171 0.0 0.0 0.00 0.00 0.00 89 1018.6
20260831042403 72 171 0.0 0.0 0.00 0.00 0.00 89 1018.3
20260831041858 72 171 0.0 0.0 0.00 0.00 0.00 88 1018.6
20260831041353 72 171 0.0 0.0 0.00 0.00 0.00 87 1018.6
20260831040848 72 171 0.0 0.0 0.00 0.00 0.00 87 1018.4
20260831040347 72 171 0.0 0.0 0.00 0.00 0.00 86 1018.6
20260831035846 73 171 0.0 0.0 0.00 0.00 0.00 86 1018.4
20260831035345 72 171 0.0 0.0 0.00 0.00 0.00 86 1018.5
20260831034839 73 171 0.0 0.0 0.00 0.00 0.00 87 1018.6
20260831034335 73 171 0.0 0.0 0.00 0.00 0.00 86 1018.6
20260831033830 73 171 0.0 0.0 0.00 0.00 0.00 85 1018.7
20260831033330 73 171 0.0 0.0 0.00 0.00 0.00 85 1018.6
20260831032826 73 171 0.0 0.0 0.00 0.00 0.00 85 1018.6
20260831032325 73 171 0.0 0.0 0.00 0.00 0.00 85 1018.7
20260831031821 74 171 0.0 0.0 0.00 0.00 0.00 85 1018.6
20260831031320 74 171 0.0 0.0 0.00 0.00 0.00 83 1018.8
20260831030816 74 171 0.0 1.0 0.00 0.00 0.00 84 1018.7
20260831030314 74 171 0.0 1.0 0.00 0.00 0.00 84 1018.5
20260831025813 74 171 0.0 0.0 0.00 0.00 0.00 84 1018.5
20260831025308 74 171 0.0 1.0 0.00 0.00 0.00 84 1018.6
20260831024804 74 171 1.0 1.0 0.00 0.00 0.00 84 1018.7
20260831024303 74 170 0.0 0.0 0.00 0.00 0.00 84 1018.6
20260831023802 74 170 0.0 1.0 0.00 0.00 0.00 84 1018.6
20260831023300 75 170 1.0 1.0 0.00 0.00 0.00 84 1018.4
20260831022755 75 170 0.0 1.0 0.00 0.00 0.00 83 1018.5
20260831022254 75 170 0.0 0.0 0.00 0.00 0.00 84 1018.8
20260831021750 75 170 0.0 0.0 0.00 0.00 0.00 84 1018.5
20260831021249 75 170 0.0 0.0 0.00 0.00 0.00 83 1018.6
20260831020746 75 170 0.0 1.0 0.00 0.00 0.00 83 1018.5
20260831020244 75 170 0.0 0.0 0.00 0.00 0.00 83 1018.5
20260831015741 75 170 0.0 0.0 0.00 0.00 0.00 83 1018.6
20260831015236 75 170 0.0 0.0 0.00 0.00 0.00 83 1018.4
20260831014731 75 170 0.0 0.0 0.00 0.00 0.00 83 1018.5
20260831014231 75 170 0.0 1.0 0.00 0.00 0.00 83 1018.4
20260831013728 75 170 0.0 0.0 0.00 0.00 0.00 83 1018.5
20260831013226 75 170 0.0 0.0 0.00 0.00 0.00 83 1018.5
20260831012722 75 170 0.0 0.0 0.00 0.00 0.00 83 1018.4
20260831012217 75 170 0.0 0.0 0.00 0.00 0.00 82 1018.4
20260831011716 76 170 0.0 0.0 0.00 0.00 0.00 81 1018.1
20260831011212 76 170 0.0 0.0 0.00 0.00 0.00 81 1018.4
20260831010708 76 170 0.0 0.0 0.00 0.00 0.00 82 1018.3
20260831010203 76 170 0.0 0.0 0.00 0.00 0.00 81 1018.3
20260831005702 77 170 0.0 0.0 0.00 0.00 0.00 80 1018.4
20260831005158 77 170 0.0 0.0 0.00 0.00 0.00 80 1018.4
20260831004653 77 170 0.0 0.0 0.00 0.00 0.00 79 1018.2
20260831004149 77 170 0.0 0.0 0.00 0.00 0.00 78 1017.8
20260831003645 77 170 0.0 1.0 0.00 0.00 0.00 78 1017.9
20260831003141 77 170 0.0 1.0 0.00 0.00 0.00 77 1018.0
20260831002639 78 170 1.0 1.0 0.00 0.00 0.00 76 1017.9
20260831002135 78 170 0.0 0.0 0.00 0.00 0.00 75 1018.0
20260831001630 78 170 0.0 0.0 0.00 0.00 0.00 75 1017.9
20260831001126 78 170 0.0 0.0 0.00 0.00 0.00 75 1018.0
20260831000623 78 170 0.0 0.0 0.00 0.00 0.00 76 1017.9
20260831000122 79 170 0.0 0.0 0.00 0.00 0.00 74 1018.0
20260830235621 79 170 0.0 0.0 0.00 0.00 0.00 74 1018.0
20260830235116 79 170 0.0 0.0 0.00 0.00 0.00 74 1018.0
20260830234611 80 170 0.0 0.0 0.00 0.00 0.00 72 1018.0
20260830234107 80 170 0.0 0.0 0.00 0.00 0.00 73 1018.0
20260830233602 80 170 0.0 0.0 0.00 0.00 0.00 74 1017.8
20260830233057 81 170 0.0 0.0 0.00 0.00 0.00 77 1017.8
20260830232553 82 170 0.0 0.0 0.00 0.00 0.00 73 1017.9
20260830232049 83 170 0.0 0.0 0.00 0.00 0.00 71 1017.7
20260830231545 84 171 0.0 1.0 0.00 0.00 0.00 64 1017.5
20260830231043 85 168 0.0 0.0 0.00 0.00 0.00 58 1017.4
20260830230539 86 164 0.0 1.0 0.00 0.00 0.00 58 1017.5
20260830230034 86 199 0.0 3.0 0.00 0.00 0.00 55 1017.5
20260830225530 86 185 1.0 3.0 0.00 0.00 0.00 56 1017.3
20260830225029 86 183 2.0 2.0 0.00 0.00 0.00 55 1017.3
20260830224527 87 255 1.0 2.0 0.00 0.00 0.00 54 1017.4
20260830224025 88 196 1.0 1.0 0.00 0.00 0.00 53 1017.3
20260830223521 87 208 1.0 2.0 0.00 0.00 0.00 53 1017.6
20260830223021 87 166 0.0 1.0 0.00 0.00 0.00 54 1017.4
20260830222515 88 214 0.0 0.0 0.00 0.00 0.00 53 1017.7
20260830222011 87 228 1.0 2.0 0.00 0.00 0.00 53 1017.5
20260830221508 87 206 0.0 1.0 0.00 0.00 0.00 54 1017.2
20260830221003 86 260 1.0 3.0 0.00 0.00 0.00 54 1017.2
20260830220503 86 192 1.0 3.0 0.00 0.00 0.00 54 1017.3
20260830220000 86 299 1.0 1.0 0.00 0.00 0.00 53 1017.3
20260830215456 86 206 1.0 2.0 0.00 0.00 0.00 54 1017.4
20260830214950 87 162 0.0 2.0 0.00 0.00 0.00 54 1017.2
20260830214446 87 159 0.0 2.0 0.00 0.00 0.00 52 1017.6
20260830213945 87 184 1.0 2.0 0.00 0.00 0.00 53 1017.5
20260830213441 87 169 1.0 2.0 0.00 0.00 0.00 52 1017.6
20260830212936 87 194 1.0 2.0 0.00 0.00 0.00 51 1017.5
20260830212432 88 191 2.0 4.0 0.00 0.00 0.00 51 1017.5
20260830211931 89 175 1.0 3.0 0.00 0.00 0.00 52 1017.4
20260830211426 90 162 0.0 2.0 0.00 0.00 0.00 49 1017.4
20260830210922 90 193 1.0 7.0 0.00 0.00 0.00 47 1017.4
20260830210421 91 246 1.0 2.0 0.00 0.00 0.00 47 1017.6
20260830205918 91 246 1.0 2.0 0.00 0.00 0.00 49 1017.8
20260830205418 89 159 0.0 2.0 0.00 0.00 0.00 50 1017.7
20260830204914 89 221 0.0 1.0 0.00 0.00 0.00 50 1017.8
20260830204412 87 359 0.0 1.0 0.00 0.00 0.00 52 1017.9
20260830203908 88 42 0.0 0.0 0.00 0.00 0.00 51 1018.0
20260830203404 89 307 1.0 1.0 0.00 0.00 0.00 50 1018.0
20260830202903 91 201 0.0 2.0 0.00 0.00 0.00 49 1018.0
20260830202359 90 33 3.0 3.0 0.00 0.00 0.00 50 1018.0
20260830201855 90 11 2.0 3.0 0.00 0.00 0.00 50 1018.2
20260830201354 90 276 1.0 1.0 0.00 0.00 0.00 51 1018.4
20260830200849 91 195 0.0 3.0 0.00 0.00 0.00 49 1018.3
20260830200349 91 311 1.0 1.0 0.00 0.00 0.00 49 1018.4
20260830195844 89 191 1.0 1.0 0.00 0.00 0.00 51 1018.6
20260830195343 90 315 2.0 3.0 0.00 0.00 0.00 54 1018.6
20260830194842 89 265 0.0 1.0 0.00 0.00 0.00 52 1018.5
20260830194336 90 312 2.0 2.0 0.00 0.00 0.00 51 1018.8
20260830193832 88 286 2.0 2.0 0.00 0.00 0.00 54 1019.0
20260830193331 88 35 0.0 1.0 0.00 0.00 0.00 53 1018.9
20260830192827 88 310 0.0 1.0 0.00 0.00 0.00 53 1019.0
20260830192326 88 25 0.0 1.0 0.00 0.00 0.00 56 1019.0
20260830191822 89 54 1.0 2.0 0.00 0.00 0.00 53 1019.2
20260830191322 90 299 0.0 1.0 0.00 0.00 0.00 55 1019.4
20260830190818 88 347 0.0 2.0 0.00 0.00 0.00 55 1019.3
20260830190317 87 63 0.0 1.0 0.00 0.00 0.00 53 1019.5
20260830185816 87 282 0.0 2.0 0.00 0.00 0.00 53 1019.7
20260830185312 87 43 1.0 2.0 0.00 0.00 0.00 56 1019.7
20260830184807 87 5 1.0 1.0 0.00 0.00 0.00 54 1020.0
20260830184306 87 170 1.0 3.0 0.00 0.00 0.00 55 1020.1
20260830183801 88 239 1.0 2.0 0.00 0.00 0.00 53 1020.1
20260830183301 87 31 2.0 7.0 0.00 0.00 0.00 54 1020.0
20260830182757 88 5 3.0 3.0 0.00 0.00 0.00 57 1019.9
20260830182253 87 351 1.0 2.0 0.00 0.00 0.00 56 1020.1
20260830181749 88 188 2.0 2.0 0.00 0.00 0.00 53 1020.1
20260830181244 87 239 0.0 2.0 0.00 0.00 0.00 55 1020.3
20260830180743 87 174 0.0 1.0 0.00 0.00 0.00 56 1020.0
20260830180238 87 278 0.0 1.0 0.00 0.00 0.00 56 1020.4
20260830175737 87 277 1.0 1.0 0.00 0.00 0.00 55 1020.3
20260830175233 87 43 0.0 3.0 0.00 0.00 0.00 56 1020.4
20260830174732 88 274 2.0 4.0 0.00 0.00 0.00 54 1020.6
20260830174228 88 302 1.0 6.0 0.00 0.00 0.00 53 1020.6
20260830173728 88 357 4.0 6.0 0.00 0.00 0.00 54 1020.6
20260830173223 88 292 2.0 3.0 0.00 0.00 0.00 57 1020.7
20260830172720 87 192 1.0 2.0 0.00 0.00 0.00 60 1020.6
20260830172216 87 182 1.0 3.0 0.00 0.00 0.00 59 1020.6
20260830171712 87 290 1.0 2.0 0.00 0.00 0.00 61 1020.6
20260830171206 86 330 1.0 3.0 0.00 0.00 0.00 60 1020.6
20260830170701 87 174 2.0 3.0 0.00 0.00 0.00 57 1020.9
20260830170200 87 260 1.0 1.0 0.00 0.00 0.00 61 1020.9
20260830165654 87 335 1.0 2.0 0.00 0.00 0.00 59 1020.6
20260830165150 86 287 1.0 3.0 0.00 0.00 0.00 58 1020.6
20260830164647 87 352 1.0 3.0 0.00 0.00 0.00 57 1020.4
20260830164142 87 252 2.0 3.0 0.00 0.00 0.00 58 1020.7
20260830163639 86 248 3.0 3.0 0.00 0.00 0.00 58 1020.4
20260830163139 86 202 2.0 3.0 0.00 0.00 0.00 59 1020.6
20260830162634 86 28 1.0 2.0 0.00 0.00 0.00 61 1020.3
20260830162130 86 280 1.0 6.0 0.00 0.00 0.00 59 1020.5
20260830161630 85 153 1.0 3.0 0.00 0.00 0.00 61 1020.6
20260830161125 85 194 2.0 3.0 0.00 0.00 0.00 61 1020.6
20260830160621 86 273 2.0 3.0 0.00 0.00 0.00 58 1020.5
20260830160115 86 350 2.0 3.0 0.00 0.00 0.00 61 1020.5
20260830155612 86 161 2.0 4.0 0.00 0.00 0.00 61 1020.6
20260830155107 86 186 2.0 3.0 0.00 0.00 0.00 60 1020.5
20260830154602 85 312 2.0 3.0 0.00 0.00 0.00 63 1020.5
20260830154059 85 180 1.0 3.0 0.00 0.00 0.00 63 1020.4
20260830153555 84 170 1.0 2.0 0.00 0.00 0.00 67 1020.5
20260830153054 84 248 1.0 10.0 0.00 0.00 0.00 65 1020.3
20260830152549 83 166 1.0 4.0 0.00 0.00 0.00 65 1020.5
20260830152048 83 162 2.0 3.0 0.00 0.00 0.00 66 1020.4
20260830151547 83 192 2.0 3.0 0.00 0.00 0.00 67 1020.4
20260830151043 83 169 1.0 3.0 0.00 0.00 0.00 68 1020.3
20260830150542 83 199 0.0 3.0 0.00 0.00 0.00 69 1020.1
20260830150037 82 180 1.0 3.0 0.00 0.00 0.00 70 1020.0
20260830145537 82 196 1.0 4.0 0.00 0.00 0.00 71 1020.1
20260830145032 82 179 0.0 3.0 0.00 0.00 0.00 72 1019.8
20260830144528 81 183 0.0 1.0 0.00 0.00 0.00 73 1019.7
20260830144024 81 190 1.0 3.0 0.00 0.00 0.00 71 1020.0
20260830143519 81 174 1.0 4.0 0.00 0.00 0.00 73 1019.8
20260830143017 80 187 0.0 1.0 0.00 0.00 0.00 74 1019.9
20260830142513 80 171 1.0 2.0 0.00 0.00 0.00 76 1019.8
20260830142008 79 263 0.0 0.0 0.00 0.00 0.00 77 1019.7
20260830141503 79 154 0.0 2.0 0.00 0.00 0.00 78 1019.6
20260830141003 78 174 2.0 3.0 0.00 0.00 0.00 78 1019.4
20260830140458 78 182 0.0 1.0 0.00 0.00 0.00 78 1019.7
20260830135958 77 152 0.0 1.0 0.00 0.00 0.00 81 1019.5
20260830135453 77 168 1.0 2.0 0.00 0.00 0.00 79 1019.4
20260830134949 77 144 0.0 1.0 0.00 0.00 0.00 80 1019.4
20260830134444 77 187 2.0 2.0 0.00 0.00 0.00 79 1019.6
20260830133939 76 133 1.0 2.0 0.00 0.00 0.00 81 1019.5
20260830133435 76 183 2.0 3.0 0.00 0.00 0.00 81 1019.6
20260830132930 75 156 0.0 3.0 0.00 0.00 0.00 81 1019.6
20260830132426 75 188 0.0 0.0 0.00 0.00 0.00 84 1019.5
20260830131925 73 196 0.0 1.0 0.00 0.00 0.00 86 1019.5
20260830131425 72 72 0.0 0.0 0.00 0.00 0.00 89 1019.7
20260830130920 72 72 0.0 1.0 0.00 0.00 0.00 89 1019.8
20260830130416 71 72 0.0 0.0 0.00 0.00 0.00 91 1019.8
20260830125914 71 72 0.0 0.0 0.00 0.00 0.00 92 1019.8
20260830125410 70 72 0.0 0.0 0.00 0.00 0.00 95 1019.7
20260830124908 70 72 0.0 0.0 0.00 0.00 0.00 95 1019.7
20260830124403 69 72 0.0 0.0 0.00 0.00 0.00 96 1019.8
20260830123859 69 72 0.0 0.0 0.00 0.00 0.00 96 1020.0
20260830123356 69 72 0.0 0.0 0.00 0.00 0.00 97 1020.0
20260830122853 68 72 0.0 0.0 0.00 0.00 0.00 97 1020.0
20260830122348 68 72 0.0 0.0 0.00 0.00 0.00 97 1020.0
20260830121843 68 72 0.0 0.0 0.00 0.00 0.00 97 1020.0
20260830121343 68 72 0.0 0.0 0.00 0.00 0.00 98 1019.9
20260830120838 67 72 0.0 0.0 0.00 0.00 0.00 98 1019.8
20260830120333 67 72 0.0 0.0 0.00 0.00 0.00 98 1019.7
20260830115830 67 71 0.0 0.0 0.00 0.00 0.00 98 1020.0
20260830115326 66 72 0.0 0.0 0.00 0.00 0.00 98 1019.6
20260830114821 66 72 0.0 0.0 0.00 0.00 0.00 98 1019.7
20260830114317 66 72 0.0 0.0 0.00 0.00 0.00 98 1019.5
20260830113812 66 72 0.0 0.0 0.00 0.00 0.00 98 1019.4
20260830113307 66 72 0.0 0.0 0.00 0.00 0.00 98 1019.6
20260830112803 66 72 0.0 0.0 0.00 0.00 0.00 98 1019.2
20260830112259 66 72 0.0 0.0 0.00 0.00 0.00 98 1019.4
20260830111755 66 72 0.0 0.0 0.00 0.00 0.00 98 1019.4
20260830111250 66 72 0.0 0.0 0.00 0.00 0.00 98 1019.5
20260830110750 66 72 0.0 0.0 0.00 0.00 0.00 98 1019.3
20260830110246 66 72 0.0 0.0 0.00 0.00 0.00 98 1019.3
20260830105745 66 72 0.0 0.0 0.00 0.00 0.00 98 1019.3
20260830105241 66 72 0.0 0.0 0.00 0.00 0.00 98 1019.2
20260830104738 67 72 0.0 0.0 0.00 0.00 0.00 98 1019.3
20260830104234 67 72 0.0 0.0 0.00 0.00 0.00 98 1019.2
20260830103733 67 72 0.0 0.0 0.00 0.00 0.00 98 1019.3
20260830103229 67 72 0.0 0.0 0.00 0.00 0.00 97 1019.0
20260830102727 67 72 0.0 0.0 0.00 0.00 0.00 97 1019.1
20260830102224 67 72 0.0 0.0 0.00 0.00 0.00 96 1019.0
20260830101720 67 72 0.0 0.0 0.00 0.00 0.00 96 1019.2
20260830101215 68 72 0.0 0.0 0.00 0.00 0.00 96 1019.4
20260830100709 68 72 0.0 0.0 0.00 0.00 0.00 95 1019.4
20260830100208 68 72 0.0 0.0 0.00 0.00 0.00 95 1019.3
20260830095707 68 72 0.0 0.0 0.00 0.00 0.00 95 1019.4
20260830095204 68 72 0.0 0.0 0.00 0.00 0.00 95 1019.3
20260830094659 68 72 0.0 0.0 0.00 0.00 0.00 95 1019.3
20260830094155 68 72 0.0 0.0 0.00 0.00 0.00 95 1019.2
20260830093650 68 72 0.0 0.0 0.00 0.00 0.00 95 1019.1
20260830093147 68 72 0.0 0.0 0.00 0.00 0.00 95 1019.1
20260830092646 68 72 0.0 0.0 0.00 0.00 0.00 95 1019.2
20260830092144 68 72 0.0 0.0 0.00 0.00 0.00 95 1019.1
20260830091643 69 72 0.0 0.0 0.00 0.00 0.00 95 1019.1
20260830091142 69 72 0.0 0.0 0.00 0.00 0.00 94 1019.1
20260830090638 69 72 0.0 0.0 0.00 0.00 0.00 94 1019.1
20260830090133 69 72 0.0 0.0 0.00 0.00 0.00 95 1019.1
20260830085632 69 72 0.0 0.0 0.00 0.00 0.00 94 1019.0